• In Uzbekistan
  • List of Countries
  • For 7 days
  • Water Temperature
  • Satellite Maps
  • Weather Map
  • Weather Widgets
  • user-avatar
    Login

    Hourly Weather Río Gallegos

    Today, 20 February, Monday

    Time Temperature Precipitation Wind Pressure Humidity
    00:00 +8°C° 0 mm 7 mps 748 mmHg 65%
    01:00 +8°C° 0 mm 5 mps 748 mmHg 66%
    02:00 +7°C° 0 mm 6 mps 749 mmHg 66%
    03:00 +7°C° 0 mm 6 mps 749 mmHg 65%
    04:00 +7°C° 0 mm 6 mps 750 mmHg 65%
    05:00 +8°C° 0 mm 5 mps 750 mmHg 64%
    06:00 +8°C° 0 mm 5 mps 751 mmHg 62%
    07:00 +10°C° 0 mm 3 mps 750 mmHg 58%
    08:00 +10°C° 0.3 mm 3 mps 751 mmHg 60%
    09:00 +10°C° 0.3 mm 3 mps 751 mmHg 63%
    10:00 +11°C° 0.3 mm 4 mps 751 mmHg 65%
    11:00 +12°C° 0.2 mm 4 mps 751 mmHg 62%
    12:00 +13°C° 0.2 mm 5 mps 751 mmHg 59%
    13:00 +14°C° 0.2 mm 5 mps 750 mmHg 57%
    14:00 +14°C° 0.1 mm 5 mps 750 mmHg 55%
    15:00 +15°C° 0.1 mm 5 mps 751 mmHg 53%
    16:00 +15°C° 0.1 mm 4 mps 751 mmHg 50%
    17:00 +14°C° 0.2 mm 4 mps 751 mmHg 55%
    18:00 +14°C° 0.2 mm 3 mps 752 mmHg 59%
    19:00 +13°C° 0.2 mm 3 mps 752 mmHg 64%
    20:00 +12°C° 0 mm 3 mps 753 mmHg 66%
    21:00 +11°C° 0 mm 4 mps 753 mmHg 68%
    22:00 +10°C° 0 mm 4 mps 754 mmHg 70%
    23:00 +10°C° 0 mm 4 mps 754 mmHg 71%

    Tomorrow, 21 February, Tuesday

    Time Temperature Precipitation Wind Pressure Humidity
    00:00 +10°C° 0 mm 3 mps 754 mmHg 71%
    01:00 +9°C° 0 mm 3 mps 754 mmHg 72%
    02:00 +9°C° 0 mm 2 mps 754 mmHg 71%
    03:00 +9°C° 0 mm 2 mps 754 mmHg 71%
    04:00 +11°C° 0 mm 1 mps 754 mmHg 70%
    05:00 +10°C° 0 mm 2 mps 754 mmHg 69%
    06:00 +11°C° 0 mm 3 mps 753 mmHg 68%
    07:00 +11°C° 0 mm 4 mps 753 mmHg 67%
    08:00 +11°C° 0 mm 6 mps 753 mmHg 63%
    09:00 +14°C° 0 mm 7 mps 752 mmHg 60%
    10:00 +15°C° 0 mm 8 mps 752 mmHg 56%
    11:00 +15°C° 0.1 mm 7 mps 752 mmHg 55%
    12:00 +16°C° 0.1 mm 7 mps 751 mmHg 54%
    13:00 +17°C° 0.1 mm 6 mps 751 mmHg 53%
    14:00 +17°C° 0.1 mm 6 mps 751 mmHg 50%
    15:00 +19°C° 0.1 mm 6 mps 750 mmHg 47%
    16:00 +19°C° 0.1 mm 6 mps 750 mmHg 45%
    17:00 +16°C° 0.2 mm 6 mps 751 mmHg 51%
    18:00 +14°C° 0.2 mm 7 mps 751 mmHg 57%
    19:00 +11°C° 0.2 mm 7 mps 752 mmHg 63%
    20:00 +11°C° 0 mm 7 mps 753 mmHg 66%
    21:00 +10°C° 0 mm 6 mps 753 mmHg 69%
    22:00 +9°C° 0 mm 6 mps 754 mmHg 72%
    23:00 +8°C° 0 mm 6 mps 754 mmHg 73%

    Day after tomorrow, 22 February, Wednesday

    Time Temperature Precipitation Wind Pressure Humidity
    00:00 +8°C° 0 mm 6 mps 755 mmHg 74%
    01:00 +8°C° 0 mm 6 mps 755 mmHg 75%
    02:00 +6°C° 0 mm 7 mps 756 mmHg 75%
    03:00 +6°C° 0 mm 7 mps 756 mmHg 75%
    04:00 +6°C° 0 mm 7 mps 756 mmHg 75%
    05:00 +7°C° 0 mm 8 mps 757 mmHg 73%
    06:00 +7°C° 0 mm 8 mps 757 mmHg 71%
    07:00 +8°C° 0 mm 9 mps 758 mmHg 68%
    08:00 +10°C° 0 mm 9 mps 758 mmHg 64%
    09:00 +11°C° 0 mm 9 mps 758 mmHg 60%
    10:00 +12°C° 0 mm 9 mps 758 mmHg 55%
    11:00 +13°C° 0 mm 8 mps 758 mmHg 52%
    12:00 +15°C° 0 mm 8 mps 758 mmHg 49%
    13:00 +16°C° 0 mm 7 mps 758 mmHg 45%
    14:00 +16°C° 0 mm 6 mps 758 mmHg 44%
    15:00 +17°C° 0 mm 5 mps 758 mmHg 43%
    16:00 +17°C° 0 mm 5 mps 758 mmHg 41%
    17:00 +15°C° 0 mm 4 mps 758 mmHg 48%
    18:00 +14°C° 0 mm 4 mps 758 mmHg 55%
    19:00 +13°C° 0 mm 3 mps 758 mmHg 61%
    20:00 +12°C° 0 mm 3 mps 758 mmHg 65%
    21:00 +11°C° 0 mm 4 mps 758 mmHg 70%
    22:00 +11°C° 0 mm 4 mps 758 mmHg 74%
    23:00 +11°C° 0 mm 4 mps 758 mmHg 76%

    23 February, Thursday

    Time Temperature Precipitation Wind Pressure Humidity
    00:00 +10°C° 0 mm 5 mps 758 mmHg 78%
    01:00 +9°C° 0 mm 5 mps 757 mmHg 80%
    02:00 +10°C° 0 mm 6 mps 757 mmHg 80%
    03:00 +10°C° 0 mm 6 mps 756 mmHg 81%
    04:00 +10°C° 0 mm 7 mps 755 mmHg 81%
    05:00 +10°C° 0.3 mm 7 mps 755 mmHg 82%
    06:00 +10°C° 0.3 mm 6 mps 754 mmHg 84%
    07:00 +11°C° 0.3 mm 6 mps 753 mmHg 85%
    08:00 +11°C° 0.5 mm 6 mps 753 mmHg 85%
    09:00 +11°C° 0.5 mm 6 mps 752 mmHg 85%
    10:00 +13°C° 0.5 mm 5 mps 752 mmHg 85%
    11:00 +13°C° 0.4 mm 5 mps 751 mmHg 85%
    12:00 +13°C° 0.4 mm 5 mps 750 mmHg 84%
    13:00 +14°C° 0.4 mm 4 mps 750 mmHg 83%
    14:00 +15°C° 0.1 mm 6 mps 750 mmHg 77%
    15:00 +17°C° 0.1 mm 7 mps 750 mmHg 72%
    16:00 +18°C° 0.1 mm 9 mps 751 mmHg 66%
    17:00 +17°C° 0 mm 10 mps 752 mmHg 68%
    18:00 +16°C° 0 mm 10 mps 753 mmHg 70%
    19:00 +13°C° 0 mm 11 mps 754 mmHg 73%
    20:00 +12°C° 0 mm 11 mps 754 mmHg 74%
    21:00 +12°C° 0 mm 10 mps 755 mmHg 76%
    22:00 +11°C° 0 mm 9 mps 756 mmHg 78%
    23:00 +9°C° 0 mm 10 mps 757 mmHg 78%

    24 February, Friday

    Time Temperature Precipitation Wind Pressure Humidity
    00:00 +9°C° 0 mm 10 mps 757 mmHg 77%
    01:00 +8°C° 0 mm 11 mps 758 mmHg 77%
    02:00 +7°C° 0 mm 10 mps 759 mmHg 79%
    03:00 +7°C° 0 mm 9 mps 760 mmHg 80%
    04:00 +6°C° 0 mm 8 mps 761 mmHg 81%
    05:00 +6°C° 0 mm 7 mps 761 mmHg 79%
    06:00 +8°C° 0 mm 7 mps 762 mmHg 76%
    07:00 +8°C° 0 mm 7 mps 763 mmHg 74%
    08:00 +9°C° 0 mm 6 mps 763 mmHg 66%
    09:00 +12°C° 0 mm 5 mps 763 mmHg 58%
    10:00 +13°C° 0 mm 3 mps 763 mmHg 50%
    11:00 +14°C° 0 mm 3 mps 762 mmHg 46%
    12:00 +15°C° 0 mm 2 mps 762 mmHg 43%
    13:00 +16°C° 0 mm 2 mps 762 mmHg 39%
    14:00 +16°C° 0 mm 3 mps 761 mmHg 42%
    15:00 +15°C° 0 mm 5 mps 760 mmHg 45%
    16:00 +15°C° 0 mm 6 mps 760 mmHg 48%
    17:00 +14°C° 0 mm 7 mps 759 mmHg 54%
    18:00 +11°C° 0 mm 7 mps 759 mmHg 61%
    19:00 +10°C° 0 mm 7 mps 758 mmHg 67%
    20:00 +10°C° 0 mm 8 mps 758 mmHg 69%
    21:00 +10°C° 0 mm 9 mps 757 mmHg 70%
    22:00 +10°C° 0 mm 9 mps 756 mmHg 72%
    23:00 +10°C° 0 mm 9 mps 754 mmHg 73%

    25 February, Saturday

    Time Temperature Precipitation Wind Pressure Humidity
    00:00 +9°C° 0 mm 10 mps 753 mmHg 73%
    01:00 +9°C° 0 mm 10 mps 751 mmHg 74%
    02:00 +11°C° 0 mm 9 mps 750 mmHg 73%
    03:00 +11°C° 0 mm 8 mps 749 mmHg 72%
    04:00 +12°C° 0 mm 7 mps 748 mmHg 70%
    05:00 +13°C° 0.4 mm 6 mps 748 mmHg 74%
    06:00 +12°C° 0.4 mm 5 mps 748 mmHg 78%
    07:00 +12°C° 0.4 mm 4 mps 747 mmHg 82%
    08:00 +12°C° 0.1 mm 7 mps 748 mmHg 75%
    09:00 +12°C° 0.1 mm 10 mps 749 mmHg 68%
    10:00 +13°C° 0.1 mm 14 mps 750 mmHg 61%
    11:00 +13°C° 0 mm 14 mps 751 mmHg 56%
    12:00 +13°C° 0 mm 15 mps 752 mmHg 51%
    13:00 +13°C° 0 mm 16 mps 753 mmHg 46%
    14:00 +11°C° 0 mm 16 mps 754 mmHg 47%
    15:00 +11°C° 0 mm 15 mps 754 mmHg 49%
    16:00 +11°C° 0 mm 15 mps 755 mmHg 50%
    17:00 +10°C° 0 mm 14 mps 756 mmHg 54%
    18:00 +9°C° 0 mm 13 mps 757 mmHg 57%
    19:00 +8°C° 0 mm 13 mps 758 mmHg 61%
    20:00 +8°C° 0 mm 12 mps 759 mmHg 63%
    21:00 +7°C° 0 mm 11 mps 759 mmHg 65%
    22:00 +7°C° 0 mm 10 mps 760 mmHg 66%
    23:00 +7°C° 0 mm 10 mps 760 mmHg 67%
    Show more